Year,Month,Day,Hour,Minute,Value (Times are PST for temperature in C)
2007,04,06,00,00,11.10
2007,04,06,00,01,11.10
2007,04,06,00,02,11.10
2007,04,06,00,03,11.10
2007,04,06,00,04,11.10
2007,04,06,00,05,11.10
2007,04,06,00,06,11.10
2007,04,06,00,07,11.10
2007,04,06,00,08,11.10
2007,04,06,00,09,11.10
2007,04,06,00,10,11.10
2007,04,06,00,11,11.10
2007,04,06,00,12,11.10
2007,04,06,00,13,11.10
2007,04,06,00,14,11.10
2007,04,06,00,15,11.10
2007,04,06,00,16,11.00
2007,04,06,00,17,10.90
2007,04,06,00,18,10.90
2007,04,06,00,19,10.90
2007,04,06,00,20,10.90
2007,04,06,00,21,10.90
2007,04,06,00,22,10.90
2007,04,06,00,23,10.90
2007,04,06,00,24,10.90
2007,04,06,00,25,10.90
2007,04,06,00,26,10.90
2007,04,06,00,27,10.90
2007,04,06,00,28,10.90
2007,04,06,00,29,11.00
2007,04,06,00,30,11.10
2007,04,06,00,31,11.10
2007,04,06,00,32,11.10
2007,04,06,00,33,11.20
2007,04,06,00,34,11.20
2007,04,06,00,35,11.30
2007,04,06,00,36,11.30
2007,04,06,00,37,11.30
2007,04,06,00,38,11.30
2007,04,06,00,39,11.30
2007,04,06,00,40,11.30
2007,04,06,00,41,11.30
2007,04,06,00,42,11.30
2007,04,06,00,43,11.30
2007,04,06,00,44,11.30
2007,04,06,00,45,11.20
2007,04,06,00,46,11.20
2007,04,06,00,47,11.20
2007,04,06,00,48,11.10
2007,04,06,00,49,11.10
2007,04,06,00,50,11.10
2007,04,06,00,51,11.10
2007,04,06,00,52,11.10
2007,04,06,00,53,11.10
2007,04,06,00,54,11.10
2007,04,06,00,55,11.10
2007,04,06,00,56,11.10
2007,04,06,00,57,11.10
2007,04,06,00,58,11.20
2007,04,06,00,59,11.30
2007,04,06,01,00,11.40
2007,04,06,01,01,11.40
2007,04,06,01,02,11.50
2007,04,06,01,03,11.60
2007,04,06,01,04,11.60
2007,04,06,01,05,11.60
2007,04,06,01,06,11.60
2007,04,06,01,07,11.60
2007,04,06,01,08,11.60
2007,04,06,01,09,11.60
2007,04,06,01,10,11.60
2007,04,06,01,11,11.70
2007,04,06,01,12,11.70
2007,04,06,01,13,11.70
2007,04,06,01,14,11.80
2007,04,06,01,15,11.80
2007,04,06,01,16,11.80
2007,04,06,01,17,11.80
2007,04,06,01,18,11.80
2007,04,06,01,19,11.80
2007,04,06,01,20,11.90
2007,04,06,01,21,11.90
2007,04,06,01,22,11.90
2007,04,06,01,23,11.90
2007,04,06,01,24,11.90
2007,04,06,01,25,11.90
2007,04,06,01,26,11.90
2007,04,06,01,27,11.90
2007,04,06,01,28,11.90
2007,04,06,01,29,11.90
2007,04,06,01,30,11.90
2007,04,06,01,31,11.90
2007,04,06,01,32,11.90
2007,04,06,01,33,11.90
2007,04,06,01,34,11.90
2007,04,06,01,35,11.90
2007,04,06,01,36,11.90
2007,04,06,01,37,11.90
2007,04,06,01,38,11.90
2007,04,06,01,39,11.80
2007,04,06,01,40,11.80
2007,04,06,01,41,11.80
2007,04,06,01,42,11.80
2007,04,06,01,43,11.80
2007,04,06,01,44,11.80
2007,04,06,01,45,11.80
2007,04,06,01,46,11.80
2007,04,06,01,47,11.80
2007,04,06,01,48,11.70
2007,04,06,01,49,11.70
2007,04,06,01,50,11.70
2007,04,06,01,51,11.70
2007,04,06,01,52,11.70
2007,04,06,01,53,11.70
2007,04,06,01,54,11.70
2007,04,06,01,55,11.80
2007,04,06,01,56,11.80
2007,04,06,01,57,11.80
2007,04,06,01,58,11.80
2007,04,06,01,59,11.70
2007,04,06,02,00,11.70
2007,04,06,02,01,11.60
2007,04,06,02,02,11.60
2007,04,06,02,03,11.70
2007,04,06,02,04,11.70
2007,04,06,02,05,11.70
2007,04,06,02,06,11.80
2007,04,06,02,07,11.80
2007,04,06,02,08,11.80
2007,04,06,02,09,11.90
2007,04,06,02,10,11.90
2007,04,06,02,11,12.00
2007,04,06,02,12,12.00
2007,04,06,02,13,12.00
2007,04,06,02,14,12.10
2007,04,06,02,15,12.10
2007,04,06,02,16,12.10
2007,04,06,02,17,12.20
2007,04,06,02,18,12.20
2007,04,06,02,19,12.20
2007,04,06,02,20,12.20
2007,04,06,02,21,12.20
2007,04,06,02,22,12.10
2007,04,06,02,23,12.20
2007,04,06,02,24,12.10
2007,04,06,02,25,12.10
2007,04,06,02,26,12.10
2007,04,06,02,27,12.10
2007,04,06,02,28,12.10
2007,04,06,02,29,12.20
2007,04,06,02,30,12.20
2007,04,06,02,31,12.20
2007,04,06,02,32,12.20
2007,04,06,02,33,12.10
2007,04,06,02,34,12.10
2007,04,06,02,35,12.10
2007,04,06,02,36,12.20
2007,04,06,02,37,12.20
2007,04,06,02,38,12.30
2007,04,06,02,39,12.30
2007,04,06,02,40,12.30
2007,04,06,02,41,12.30
2007,04,06,02,42,12.30
2007,04,06,02,43,12.30
2007,04,06,02,44,12.20
2007,04,06,02,45,12.20
2007,04,06,02,46,12.20
2007,04,06,02,47,12.20
2007,04,06,02,48,12.20
2007,04,06,02,49,12.20
2007,04,06,02,50,12.10
2007,04,06,02,51,12.10
2007,04,06,02,52,12.10
2007,04,06,02,53,12.10
2007,04,06,02,54,12.10
2007,04,06,02,55,12.10
2007,04,06,02,56,12.10
2007,04,06,02,57,12.00
2007,04,06,02,58,12.00
2007,04,06,02,59,12.00
2007,04,06,03,00,12.00
2007,04,06,03,01,12.00
2007,04,06,03,02,12.00
2007,04,06,03,03,12.00
2007,04,06,03,04,12.00
2007,04,06,03,05,12.00
2007,04,06,03,06,12.00
2007,04,06,03,07,12.00
2007,04,06,03,08,12.00
2007,04,06,03,09,12.00
2007,04,06,03,10,12.00
2007,04,06,03,11,12.00
2007,04,06,03,12,12.00
2007,04,06,03,13,12.00
2007,04,06,03,14,12.00
2007,04,06,03,15,12.00
2007,04,06,03,16,12.00
2007,04,06,03,17,12.00
2007,04,06,03,18,12.00
2007,04,06,03,19,12.00
2007,04,06,03,20,12.00
2007,04,06,03,21,12.10
2007,04,06,03,22,12.10
2007,04,06,03,23,12.00
2007,04,06,03,24,12.00
2007,04,06,03,25,12.00
2007,04,06,03,26,11.90
2007,04,06,03,27,11.90
2007,04,06,03,28,11.90
2007,04,06,03,29,11.90
2007,04,06,03,30,11.90
2007,04,06,03,31,11.80
2007,04,06,03,32,11.80
2007,04,06,03,33,11.80
2007,04,06,03,34,11.80
2007,04,06,03,35,11.80
2007,04,06,03,36,11.80
2007,04,06,03,37,11.80
2007,04,06,03,38,11.80
2007,04,06,03,39,11.70
2007,04,06,03,40,11.70
2007,04,06,03,41,11.70
2007,04,06,03,42,11.60
2007,04,06,03,43,11.60
2007,04,06,03,44,11.60
2007,04,06,03,45,11.60
2007,04,06,03,46,11.60
2007,04,06,03,47,11.60
2007,04,06,03,48,11.50
2007,04,06,03,49,11.40
2007,04,06,03,50,11.40
2007,04,06,03,51,11.40
2007,04,06,03,52,11.40
2007,04,06,03,53,11.30
2007,04,06,03,54,11.30
2007,04,06,03,55,11.20
2007,04,06,03,56,11.20
2007,04,06,03,57,11.20
2007,04,06,03,58,11.10
2007,04,06,03,59,11.10
2007,04,06,04,00,11.10
2007,04,06,04,01,11.10
2007,04,06,04,02,11.10
2007,04,06,04,03,11.10
2007,04,06,04,04,11.10
2007,04,06,04,05,11.10
2007,04,06,04,06,11.10
2007,04,06,04,07,11.00
2007,04,06,04,08,10.90
2007,04,06,04,09,10.90
2007,04,06,04,10,10.90
2007,04,06,04,11,10.90
2007,04,06,04,12,10.90
2007,04,06,04,13,10.90
2007,04,06,04,14,10.90
2007,04,06,04,15,10.90
2007,04,06,04,16,10.80
2007,04,06,04,17,10.80
2007,04,06,04,18,10.80
2007,04,06,04,19,10.80
2007,04,06,04,20,10.80
2007,04,06,04,21,10.80
2007,04,06,04,22,10.80
2007,04,06,04,23,10.70
2007,04,06,04,24,10.70
2007,04,06,04,25,10.70
2007,04,06,04,26,10.80
2007,04,06,04,27,10.80
2007,04,06,04,28,10.80
2007,04,06,04,29,10.80
2007,04,06,04,30,10.90
2007,04,06,04,31,10.90
2007,04,06,04,32,10.90
2007,04,06,04,33,10.90
2007,04,06,04,34,10.90
2007,04,06,04,35,10.90
2007,04,06,04,36,10.90
2007,04,06,04,37,10.90
2007,04,06,04,38,10.90
2007,04,06,04,39,10.90
2007,04,06,04,40,10.80
2007,04,06,04,41,10.80
2007,04,06,04,42,10.80
2007,04,06,04,43,10.80
2007,04,06,04,44,10.80
2007,04,06,04,45,10.80
2007,04,06,04,46,10.80
2007,04,06,04,47,10.80
2007,04,06,04,48,10.70
2007,04,06,04,49,10.70
2007,04,06,04,50,10.70
2007,04,06,04,51,10.60
2007,04,06,04,52,10.60
2007,04,06,04,53,10.60
2007,04,06,04,54,10.60
2007,04,06,04,55,10.60
2007,04,06,04,56,10.60
2007,04,06,04,57,10.60
2007,04,06,04,58,10.60
2007,04,06,04,59,10.60
2007,04,06,05,00,10.50
2007,04,06,05,01,10.40
2007,04,06,05,02,10.40
2007,04,06,05,03,10.40
2007,04,06,05,04,10.40
2007,04,06,05,05,10.30
2007,04,06,05,06,10.20
2007,04,06,05,07,10.20
2007,04,06,05,08,10.20
2007,04,06,05,09,10.10
2007,04,06,05,10,10.10
2007,04,06,05,11,10.10
2007,04,06,05,12,10.00
2007,04,06,05,13,9.90
2007,04,06,05,14,9.90
2007,04,06,05,15,9.90
2007,04,06,05,16,9.90
2007,04,06,05,17,9.90
2007,04,06,05,18,9.90
2007,04,06,05,19,9.80
2007,04,06,05,20,9.80
2007,04,06,05,21,9.80
2007,04,06,05,22,9.80
2007,04,06,05,23,9.80
2007,04,06,05,24,9.80
2007,04,06,05,25,9.80
2007,04,06,05,26,9.80
2007,04,06,05,27,9.80
2007,04,06,05,28,9.80
2007,04,06,05,29,9.80
2007,04,06,05,30,9.80
2007,04,06,05,31,9.80
2007,04,06,05,32,9.80
2007,04,06,05,33,9.80
2007,04,06,05,34,9.80
2007,04,06,05,35,9.80
2007,04,06,05,36,9.80
2007,04,06,05,37,9.80
2007,04,06,05,38,9.90
2007,04,06,05,39,9.90
2007,04,06,05,40,9.90
2007,04,06,05,41,9.90
2007,04,06,05,42,9.90
2007,04,06,05,43,9.90
2007,04,06,05,44,9.90
2007,04,06,05,45,9.90
2007,04,06,05,46,9.90
2007,04,06,05,47,9.90
2007,04,06,05,48,9.90
2007,04,06,05,49,9.90
2007,04,06,05,50,9.90
2007,04,06,05,51,9.90
2007,04,06,05,52,9.90
2007,04,06,05,53,9.90
2007,04,06,05,54,9.90
2007,04,06,05,55,9.90
2007,04,06,05,56,9.90
2007,04,06,05,57,9.90
2007,04,06,05,58,9.90
2007,04,06,05,59,9.90
2007,04,06,06,00,10.00
2007,04,06,06,01,10.10
2007,04,06,06,02,10.10
2007,04,06,06,03,10.10
2007,04,06,06,04,10.10
2007,04,06,06,05,10.10
2007,04,06,06,06,10.10
2007,04,06,06,07,10.10
2007,04,06,06,08,10.10
2007,04,06,06,09,10.10
2007,04,06,06,10,10.10
2007,04,06,06,11,10.10
2007,04,06,06,12,10.10
2007,04,06,06,13,10.10
2007,04,06,06,14,10.10
2007,04,06,06,15,10.10
2007,04,06,06,16,10.10
2007,04,06,06,17,10.10
2007,04,06,06,18,10.10
2007,04,06,06,19,10.10
2007,04,06,06,20,10.20
2007,04,06,06,21,10.20
2007,04,06,06,22,10.20
2007,04,06,06,23,10.20
2007,04,06,06,24,10.30
2007,04,06,06,25,10.40
2007,04,06,06,26,10.40
2007,04,06,06,27,10.50
2007,04,06,06,28,10.60
2007,04,06,06,29,10.60
2007,04,06,06,30,10.60
2007,04,06,06,31,10.60
2007,04,06,06,32,10.60
2007,04,06,06,33,10.60
2007,04,06,06,34,10.60
2007,04,06,06,35,10.60
2007,04,06,06,36,10.60
2007,04,06,06,37,10.60
2007,04,06,06,38,10.60
2007,04,06,06,39,10.60
2007,04,06,06,40,10.60
2007,04,06,06,41,10.60
2007,04,06,06,42,10.60
2007,04,06,06,43,10.60
2007,04,06,06,44,10.60
2007,04,06,06,45,10.50
2007,04,06,06,46,10.40
2007,04,06,06,47,10.40
2007,04,06,06,48,10.40
2007,04,06,06,49,10.40
2007,04,06,06,50,10.40
2007,04,06,06,51,10.40
2007,04,06,06,52,10.30
2007,04,06,06,53,10.30
2007,04,06,06,54,10.30
2007,04,06,06,55,10.30
2007,04,06,06,56,10.30
2007,04,06,06,57,10.30
2007,04,06,06,58,10.30
2007,04,06,06,59,10.40
2007,04,06,07,00,10.40
2007,04,06,07,01,10.50
2007,04,06,07,02,10.60
2007,04,06,07,03,10.60
2007,04,06,07,04,10.60
2007,04,06,07,05,10.60
2007,04,06,07,06,10.60
2007,04,06,07,07,10.60
2007,04,06,07,08,10.60
2007,04,06,07,09,10.60
2007,04,06,07,10,10.60
2007,04,06,07,11,10.60
2007,04,06,07,12,10.60
2007,04,06,07,13,10.50
2007,04,06,07,14,10.40
2007,04,06,07,15,10.40
2007,04,06,07,16,10.40
2007,04,06,07,17,10.40
2007,04,06,07,18,10.40
2007,04,06,07,19,10.40
2007,04,06,07,20,10.40
2007,04,06,07,21,10.40
2007,04,06,07,22,10.40
2007,04,06,07,23,10.40
2007,04,06,07,24,10.40
2007,04,06,07,25,10.30
2007,04,06,07,26,10.30
2007,04,06,07,27,10.30
2007,04,06,07,28,10.30
2007,04,06,07,29,10.40
2007,04,06,07,30,10.40
2007,04,06,07,31,10.40
2007,04,06,07,32,10.40
2007,04,06,07,33,10.40
2007,04,06,07,34,10.40
2007,04,06,07,35,10.40
2007,04,06,07,36,10.40
2007,04,06,07,37,10.40
2007,04,06,07,38,10.40
2007,04,06,07,39,10.40
2007,04,06,07,40,10.50
2007,04,06,07,41,10.60
2007,04,06,07,42,10.60
2007,04,06,07,43,10.60
2007,04,06,07,44,10.60
2007,04,06,07,45,10.70
2007,04,06,07,46,10.80
2007,04,06,07,47,10.90
2007,04,06,07,48,10.90
2007,04,06,07,49,11.00
2007,04,06,07,50,11.10
2007,04,06,07,51,11.10
2007,04,06,07,52,11.20
2007,04,06,07,53,11.30
2007,04,06,07,54,11.40
2007,04,06,07,55,11.40
2007,04,06,07,56,11.50
2007,04,06,07,57,11.60
2007,04,06,07,58,11.60
2007,04,06,07,59,11.60
2007,04,06,08,00,11.70
2007,04,06,08,01,11.70
2007,04,06,08,02,11.80
2007,04,06,08,03,11.80
2007,04,06,08,04,11.80
2007,04,06,08,05,11.90
2007,04,06,08,06,11.90
2007,04,06,08,07,12.00
2007,04,06,08,08,12.00
2007,04,06,08,09,12.10
2007,04,06,08,10,12.10
2007,04,06,08,11,12.10
2007,04,06,08,12,12.20
2007,04,06,08,13,12.20
2007,04,06,08,14,12.30
2007,04,06,08,15,12.30
2007,04,06,08,16,12.30
2007,04,06,08,17,12.30
2007,04,06,08,18,12.30
2007,04,06,08,19,12.30
2007,04,06,08,20,12.40
2007,04,06,08,21,12.40
2007,04,06,08,22,12.40
2007,04,06,08,23,12.40
2007,04,06,08,24,12.50
2007,04,06,08,25,12.50
2007,04,06,08,26,12.50
2007,04,06,08,27,12.50
2007,04,06,08,28,12.60
2007,04,06,08,29,12.60
2007,04,06,08,30,12.60
2007,04,06,08,31,12.70
2007,04,06,08,32,12.70
2007,04,06,08,33,12.80
2007,04,06,08,34,12.80
2007,04,06,08,35,12.90
2007,04,06,08,36,13.00
2007,04,06,08,37,13.00
2007,04,06,08,38,13.10
2007,04,06,08,39,13.10
2007,04,06,08,40,13.20
2007,04,06,08,41,13.30
2007,04,06,08,42,13.30
2007,04,06,08,43,13.40
2007,04,06,08,44,13.50
2007,04,06,08,45,13.60
2007,04,06,08,46,13.60
2007,04,06,08,47,13.70
2007,04,06,08,48,13.70
2007,04,06,08,49,13.80
2007,04,06,08,50,13.80
2007,04,06,08,51,13.90
2007,04,06,08,52,14.00
2007,04,06,08,53,14.00
2007,04,06,08,54,14.10
2007,04,06,08,55,14.20
2007,04,06,08,56,14.20
2007,04,06,08,57,14.20
2007,04,06,08,58,14.30
2007,04,06,08,59,14.30
2007,04,06,09,00,14.40
2007,04,06,09,01,14.40
2007,04,06,09,02,14.50
2007,04,06,09,03,14.50
2007,04,06,09,04,14.50
2007,04,06,09,05,14.60
2007,04,06,09,06,14.60
2007,04,06,09,07,14.70
2007,04,06,09,08,14.70
2007,04,06,09,09,14.70
2007,04,06,09,10,14.80
2007,04,06,09,11,14.80
2007,04,06,09,12,14.70
2007,04,06,09,13,14.70
2007,04,06,09,14,14.70
2007,04,06,09,15,14.70
2007,04,06,09,16,14.60
2007,04,06,09,17,14.60
2007,04,06,09,18,14.60
2007,04,06,09,19,14.60
2007,04,06,09,20,14.60
2007,04,06,09,21,14.60
2007,04,06,09,22,14.60
2007,04,06,09,23,14.70
2007,04,06,09,24,14.70
2007,04,06,09,25,14.80
2007,04,06,09,26,14.80
2007,04,06,09,27,14.80
2007,04,06,09,28,14.80
2007,04,06,09,29,14.90
2007,04,06,09,30,14.90
2007,04,06,09,31,15.00
2007,04,06,09,32,15.00
2007,04,06,09,33,15.10
2007,04,06,09,34,15.20
2007,04,06,09,35,15.30
2007,04,06,09,36,15.30
2007,04,06,09,37,15.50
2007,04,06,09,38,15.50
2007,04,06,09,39,15.60
2007,04,06,09,40,15.60
2007,04,06,09,41,15.60
2007,04,06,09,42,15.70
2007,04,06,09,43,15.70
2007,04,06,09,44,15.70
2007,04,06,09,45,15.70
2007,04,06,09,46,15.80
2007,04,06,09,47,15.80
2007,04,06,09,48,15.80
2007,04,06,09,49,15.90
2007,04,06,09,50,16.00
2007,04,06,09,51,16.10
2007,04,06,09,52,16.10
2007,04,06,09,53,16.20
2007,04,06,09,54,16.20
2007,04,06,09,55,16.20
2007,04,06,09,56,16.20
2007,04,06,09,57,16.10
2007,04,06,09,58,16.00
2007,04,06,09,59,15.90
2007,04,06,10,00,15.80
2007,04,06,10,01,15.80
2007,04,06,10,02,15.80
2007,04,06,10,03,15.70
2007,04,06,10,04,15.70
2007,04,06,10,05,15.60
2007,04,06,10,06,15.60
2007,04,06,10,07,15.60
2007,04,06,10,08,15.60
2007,04,06,10,09,15.70
2007,04,06,10,10,15.70
2007,04,06,10,11,15.70
2007,04,06,10,12,15.70
2007,04,06,10,13,15.70
2007,04,06,10,14,15.70
2007,04,06,10,15,15.70
2007,04,06,10,16,15.70
2007,04,06,10,17,15.70
2007,04,06,10,18,15.70
2007,04,06,10,19,15.80
2007,04,06,10,20,15.80
2007,04,06,10,21,15.80
2007,04,06,10,22,15.90
2007,04,06,10,23,16.00
2007,04,06,10,24,16.10
2007,04,06,10,25,16.10
2007,04,06,10,26,16.10
2007,04,06,10,27,16.10
2007,04,06,10,28,16.10
2007,04,06,10,29,16.10
2007,04,06,10,30,16.10
2007,04,06,10,31,16.00
2007,04,06,10,32,15.90
2007,04,06,10,33,15.90
2007,04,06,10,34,15.90
2007,04,06,10,35,15.90
2007,04,06,10,36,15.90
2007,04,06,10,37,15.90
2007,04,06,10,38,15.90
2007,04,06,10,39,16.00
2007,04,06,10,40,16.10
2007,04,06,10,41,16.10
2007,04,06,10,42,16.10
2007,04,06,10,43,16.10
2007,04,06,10,44,16.20
2007,04,06,10,45,16.30
2007,04,06,10,46,16.30
2007,04,06,10,47,16.30
2007,04,06,10,48,16.30
2007,04,06,10,49,16.40
2007,04,06,10,50,16.40
2007,04,06,10,51,16.40
2007,04,06,10,52,16.40
2007,04,06,10,53,16.40
2007,04,06,10,54,16.40
2007,04,06,10,55,16.40
2007,04,06,10,56,16.40
2007,04,06,10,57,16.50
2007,04,06,10,58,16.70
2007,04,06,10,59,16.70
2007,04,06,11,00,16.80
2007,04,06,11,01,16.90
2007,04,06,11,02,16.90
2007,04,06,11,03,17.00
2007,04,06,11,04,17.00
2007,04,06,11,05,17.10
2007,04,06,11,06,17.20
2007,04,06,11,07,17.10
2007,04,06,11,08,17.00
2007,04,06,11,09,17.00
2007,04,06,11,10,17.00
2007,04,06,11,11,17.00
2007,04,06,11,12,16.90
2007,04,06,11,13,16.90
2007,04,06,11,14,16.80
2007,04,06,11,15,16.80
2007,04,06,11,16,16.90
2007,04,06,11,17,16.90
2007,04,06,11,18,17.00
2007,04,06,11,19,17.00
2007,04,06,11,20,17.10
2007,04,06,11,21,17.20
2007,04,06,11,22,17.30
2007,04,06,11,23,17.40
2007,04,06,11,24,17.50
2007,04,06,11,25,17.60
2007,04,06,11,26,17.70
2007,04,06,11,27,17.80
2007,04,06,11,28,17.70
2007,04,06,11,29,17.60
2007,04,06,11,30,17.60
2007,04,06,11,31,17.60
2007,04,06,11,32,17.60
2007,04,06,11,33,17.60
2007,04,06,11,34,17.70
2007,04,06,11,35,17.80
2007,04,06,11,36,17.80
2007,04,06,11,37,17.90
2007,04,06,11,38,18.00
2007,04,06,11,39,18.10
2007,04,06,11,40,18.20
2007,04,06,11,41,18.20
2007,04,06,11,42,18.20
2007,04,06,11,43,18.20
2007,04,06,11,44,18.20
2007,04,06,11,45,18.30
2007,04,06,11,46,18.40
2007,04,06,11,47,18.40
2007,04,06,11,48,18.30
2007,04,06,11,49,18.20
2007,04,06,11,50,18.10
2007,04,06,11,51,18.00
2007,04,06,11,52,17.90
2007,04,06,11,53,17.90
2007,04,06,11,54,18.00
2007,04,06,11,55,18.10
2007,04,06,11,56,18.20
2007,04,06,11,57,18.30
2007,04,06,11,58,18.50
2007,04,06,11,59,18.60
2007,04,06,12,00,18.70
2007,04,06,12,01,18.70
2007,04,06,12,02,18.80
2007,04,06,12,03,18.80
2007,04,06,12,04,18.80
2007,04,06,12,05,18.70
2007,04,06,12,06,18.70
2007,04,06,12,07,18.60
2007,04,06,12,08,18.60
2007,04,06,12,09,18.60
2007,04,06,12,10,18.60
2007,04,06,12,11,18.50
2007,04,06,12,12,18.50
2007,04,06,12,13,18.40
2007,04,06,12,14,18.50
2007,04,06,12,15,18.50
2007,04,06,12,16,18.60
2007,04,06,12,17,18.70
2007,04,06,12,18,18.80
2007,04,06,12,19,18.90
2007,04,06,12,20,18.90
2007,04,06,12,21,18.90
2007,04,06,12,22,18.90
2007,04,06,12,23,18.90
2007,04,06,12,24,18.90
2007,04,06,12,25,18.90
2007,04,06,12,26,18.90
2007,04,06,12,27,18.90
2007,04,06,12,28,19.00
2007,04,06,12,29,19.20
2007,04,06,12,30,19.30
2007,04,06,12,31,19.30
2007,04,06,12,32,19.40
2007,04,06,12,33,19.40
2007,04,06,12,34,19.30
2007,04,06,12,35,19.20
2007,04,06,12,36,19.10
2007,04,06,12,37,19.10
2007,04,06,12,38,19.10
2007,04,06,12,39,19.10
2007,04,06,12,40,19.10
2007,04,06,12,41,19.10
2007,04,06,12,42,19.10
2007,04,06,12,43,19.10
2007,04,06,12,44,19.10
2007,04,06,12,45,19.10
2007,04,06,12,46,19.20
2007,04,06,12,47,19.10
2007,04,06,12,48,19.10
2007,04,06,12,49,19.10
2007,04,06,12,50,19.10
2007,04,06,12,51,19.10
2007,04,06,12,52,19.10
2007,04,06,12,53,19.10
2007,04,06,12,54,19.10
2007,04,06,12,55,19.20
2007,04,06,12,56,19.20
2007,04,06,12,57,19.20
2007,04,06,12,58,19.20
2007,04,06,12,59,19.20
2007,04,06,13,00,19.10
2007,04,06,13,01,19.10
2007,04,06,13,02,19.10
2007,04,06,13,03,19.10
2007,04,06,13,04,19.00
2007,04,06,13,05,18.90
2007,04,06,13,06,18.90
2007,04,06,13,07,18.90
2007,04,06,13,08,18.90
2007,04,06,13,09,18.80
2007,04,06,13,10,18.80
2007,04,06,13,11,18.80
2007,04,06,13,12,18.80
2007,04,06,13,13,18.90
2007,04,06,13,14,18.90
2007,04,06,13,15,18.90
2007,04,06,13,16,19.00
2007,04,06,13,17,19.10
2007,04,06,13,18,19.10
2007,04,06,13,19,19.20
2007,04,06,13,20,19.20
2007,04,06,13,21,19.30
2007,04,06,13,22,19.30
2007,04,06,13,23,19.30
2007,04,06,13,24,19.30
2007,04,06,13,25,19.40
2007,04,06,13,26,19.40
2007,04,06,13,27,19.30
2007,04,06,13,28,19.30
2007,04,06,13,29,19.30
2007,04,06,13,30,19.40
2007,04,06,13,31,19.40
2007,04,06,13,32,19.50
2007,04,06,13,33,19.60
2007,04,06,13,34,19.60
2007,04,06,13,35,19.70
2007,04,06,13,36,19.70
2007,04,06,13,37,19.80
2007,04,06,13,38,19.90
2007,04,06,13,39,19.90
2007,04,06,13,40,19.90
2007,04,06,13,41,19.90
2007,04,06,13,42,19.90
2007,04,06,13,43,19.90
2007,04,06,13,44,19.90
2007,04,06,13,45,19.90
2007,04,06,13,46,20.10
2007,04,06,13,47,20.10
2007,04,06,13,48,20.10
2007,04,06,13,49,20.20
2007,04,06,13,50,20.20
2007,04,06,13,51,20.20
2007,04,06,13,52,20.30
2007,04,06,13,53,20.20
2007,04,06,13,54,20.20
2007,04,06,13,55,20.30
2007,04,06,13,56,20.30
2007,04,06,13,57,20.30
2007,04,06,13,58,20.40
2007,04,06,13,59,20.30
2007,04,06,14,00,20.30
2007,04,06,14,01,20.20
2007,04,06,14,02,20.20
2007,04,06,14,03,20.30
2007,04,06,14,04,20.30
2007,04,06,14,05,20.30
2007,04,06,14,06,20.40
2007,04,06,14,07,20.40
2007,04,06,14,08,20.40
2007,04,06,14,09,20.40
2007,04,06,14,10,20.30
2007,04,06,14,11,20.30
2007,04,06,14,12,20.20
2007,04,06,14,13,20.20
2007,04,06,14,14,20.10
2007,04,06,14,15,20.10
2007,04,06,14,16,20.10
2007,04,06,14,17,20.10
2007,04,06,14,18,20.00
2007,04,06,14,19,19.90
2007,04,06,14,20,19.90
2007,04,06,14,21,19.90
2007,04,06,14,22,20.10
2007,04,06,14,23,20.10
2007,04,06,14,24,20.10
2007,04,06,14,25,20.10
2007,04,06,14,26,20.10
2007,04,06,14,27,20.10
2007,04,06,14,28,20.20
2007,04,06,14,29,20.20
2007,04,06,14,30,20.30
2007,04,06,14,31,20.30
2007,04,06,14,32,20.30
2007,04,06,14,33,20.20
2007,04,06,14,34,20.10
2007,04,06,14,35,19.90
2007,04,06,14,36,19.80
2007,04,06,14,37,19.70
2007,04,06,14,38,19.60
2007,04,06,14,39,19.60
2007,04,06,14,40,19.50
2007,04,06,14,41,19.40
2007,04,06,14,42,19.40
2007,04,06,14,43,19.40
2007,04,06,14,44,19.40
2007,04,06,14,45,19.50
2007,04,06,14,46,19.50
2007,04,06,14,47,19.60
2007,04,06,14,48,19.60
2007,04,06,14,49,19.70
2007,04,06,14,50,19.80
2007,04,06,14,51,19.90
2007,04,06,14,52,20.00
2007,04,06,14,53,20.10
2007,04,06,14,54,20.10
2007,04,06,14,55,20.20
2007,04,06,14,56,20.20
2007,04,06,14,57,20.20
2007,04,06,14,58,20.20
2007,04,06,14,59,20.30
2007,04,06,15,00,20.30
2007,04,06,15,01,20.40
2007,04,06,15,02,20.40
2007,04,06,15,03,20.40
2007,04,06,15,04,20.40
2007,04,06,15,05,20.40
2007,04,06,15,06,20.30
2007,04,06,15,07,20.30
2007,04,06,15,08,20.30
2007,04,06,15,09,20.30
2007,04,06,15,10,20.30
2007,04,06,15,11,20.20
2007,04,06,15,12,20.20
2007,04,06,15,13,20.20
2007,04,06,15,14,20.20
2007,04,06,15,15,20.30
2007,04,06,15,16,20.30
2007,04,06,15,17,20.30
2007,04,06,15,18,20.40
2007,04,06,15,19,20.40
2007,04,06,15,20,20.40
2007,04,06,15,21,20.40
2007,04,06,15,22,20.40
2007,04,06,15,23,20.50
2007,04,06,15,24,20.50
2007,04,06,15,25,20.60
2007,04,06,15,26,20.60
2007,04,06,15,27,20.60
2007,04,06,15,28,20.70
2007,04,06,15,29,20.70
2007,04,06,15,30,20.60
2007,04,06,15,31,20.60
2007,04,06,15,32,20.50
2007,04,06,15,33,20.50
2007,04,06,15,34,20.50
2007,04,06,15,35,20.50
2007,04,06,15,36,20.60
2007,04,06,15,37,20.60
2007,04,06,15,38,20.70
2007,04,06,15,39,20.80
2007,04,06,15,40,20.80
2007,04,06,15,41,20.80
2007,04,06,15,42,20.80
2007,04,06,15,43,20.90
2007,04,06,15,44,21.00
2007,04,06,15,45,21.00
2007,04,06,15,46,21.00
2007,04,06,15,47,21.00
2007,04,06,15,48,21.00
2007,04,06,15,49,21.00
2007,04,06,15,50,21.00
2007,04,06,15,51,21.00
2007,04,06,15,52,21.00
2007,04,06,15,53,20.90
2007,04,06,15,54,20.90
2007,04,06,15,55,20.80
2007,04,06,15,56,20.80
2007,04,06,15,57,20.80
2007,04,06,15,58,20.80
2007,04,06,15,59,20.80
2007,04,06,16,00,20.80
2007,04,06,16,01,20.80
2007,04,06,16,02,20.80
2007,04,06,16,03,20.80
2007,04,06,16,04,20.80
2007,04,06,16,05,20.80
2007,04,06,16,06,20.70
2007,04,06,16,07,20.70
2007,04,06,16,08,20.70
2007,04,06,16,09,20.70
2007,04,06,16,10,20.70
2007,04,06,16,11,20.70
2007,04,06,16,12,20.60
2007,04,06,16,13,20.50
2007,04,06,16,14,20.50
2007,04,06,16,15,20.50
2007,04,06,16,16,20.50
2007,04,06,16,17,20.50
2007,04,06,16,18,20.50
2007,04,06,16,19,20.50
2007,04,06,16,20,20.60
2007,04,06,16,21,20.60
2007,04,06,16,22,20.50
2007,04,06,16,23,20.50
2007,04,06,16,24,20.50
2007,04,06,16,25,20.50
2007,04,06,16,26,20.50
2007,04,06,16,27,20.50
2007,04,06,16,28,20.50
2007,04,06,16,29,20.50
2007,04,06,16,30,20.50
2007,04,06,16,31,20.50
2007,04,06,16,32,20.40
2007,04,06,16,33,20.40
2007,04,06,16,34,20.40
2007,04,06,16,35,20.50
2007,04,06,16,36,20.50
2007,04,06,16,37,20.50
2007,04,06,16,38,20.60
2007,04,06,16,39,20.70
2007,04,06,16,40,20.70
2007,04,06,16,41,20.70
2007,04,06,16,42,20.80
2007,04,06,16,43,20.80
2007,04,06,16,44,20.80
2007,04,06,16,45,20.80
2007,04,06,16,46,20.70
2007,04,06,16,47,20.70
2007,04,06,16,48,20.80
2007,04,06,16,49,20.80
2007,04,06,16,50,20.80
2007,04,06,16,51,20.80
2007,04,06,16,52,20.70
2007,04,06,16,53,20.70
2007,04,06,16,54,20.70
2007,04,06,16,55,20.70
2007,04,06,16,56,20.70
2007,04,06,16,57,20.70
2007,04,06,16,58,20.70
2007,04,06,16,59,20.70
2007,04,06,17,00,20.70
2007,04,06,17,01,20.60
2007,04,06,17,02,20.60
2007,04,06,17,03,20.60
2007,04,06,17,04,20.50
2007,04,06,17,05,20.50
2007,04,06,17,06,20.60
2007,04,06,17,07,20.60
2007,04,06,17,08,20.70
2007,04,06,17,09,20.70
2007,04,06,17,10,20.70
2007,04,06,17,11,20.70
2007,04,06,17,12,20.70
2007,04,06,17,13,20.60
2007,04,06,17,14,20.60
2007,04,06,17,15,20.60
2007,04,06,17,16,20.60
2007,04,06,17,17,20.60
2007,04,06,17,18,20.60
2007,04,06,17,19,20.60
2007,04,06,17,20,20.50
2007,04,06,17,21,20.50